STARLINK-5506 (55651 NORAD) Tracking and Keplerian Element Data

This shows tracking and keplerian element data for the satellite.

Feedback or suggestion? Click here.




ElementValue
Catalog55651
NameSTARLINK-5506
Epoch Orbit130
Epoch Day62.91667824
Epoch Year2023
RAAN110.1986
Inclination69.9997
Eccentricity0.000349
Argument of Perigee274.2767
Mean Anonmoly321.6136
Mean Motion15.74994145
Decay Rate-0.01032712
L11 55651U 23021Z 23062.91667824 -.01032712 00000+0 -76713-2 0 9999
L22 55651 69.9997 110.1986 0003490 274.2767 321.6136 15.74994145 1305



Live tracking and technical data element details for STARLINK-5506 (NORAD 55651). STARLINK-5506 can be tracked NOW for your location showing map with azimuth and elevation plus other details from your city location.







IsCatalogInMostPopularTable: catalog: 55651, numindb: 1
Update: records affected: 1



GetName: 55651 STARLINK-5506

Hit Count: updated at: Wed, 22 Mar 2023 17:09:12 GMT